#timestamp,LO_Frequency,Hit 
1498597215.4,286046895.1,N
1498597235.2,286046895.4,N
1498597255.1,286046894.4,N
1498597256.0,286046894.4,N
1498597275.8,286046894.3,N
1498597295.6,286046894.4,N
1498597315.4,286046894.5,N
1498597335.3,286046894.2,N
1498597355.1,286046894.6,N
1498597375.8,286046895.3,N
1498597395.7,286046892.9,N
1498597415.5,286046895.2,N
1498597435.3,286046894.3,N
1498597455.2,286046896.7,N
1498597475.9,286046897.2,N
1498597495.7,286046896.0,N
1498597515.6,286046896.0,N
1498597535.4,286046898.4,N
1498597555.2,286046898.4,N
1498597575.1,286046896.1,N
1498597576.0,286046896.1,N
1498597595.8,286046898.1,N
1498597615.6,286046896.3,N
1498597635.5,286046896.6,N
1498597655.3,286046897.9,N
1498597675.1,286046897.9,N
1498597695.8,286046897.9,N
1498597715.7,286046898.0,N
1498597735.5,286046897.8,N
1498597755.3,286046897.5,N
1498597775.2,286046900.2,N
1498597795.9,286046898.0,N
1498597815.7,286046898.5,N
1498597835.6,286046898.0,N
1498597855.4,286046897.5,N
1498597875.2,286046897.3,N
1498597895.1,286046899.5,N
1498597896.0,286046899.5,N
1498597915.8,286046897.9,N
1498597935.6,286046900.4,N
1498597955.5,286046897.5,N
1498597975.3,286046897.9,N
1498597995.1,286046897.5,N
1498598015.8,286046897.6,N
1498598035.7,286046900.2,N
1498598055.5,286046899.9,N
1498598075.3,286046897.3,N
1498598095.2,286046899.9,N
1498598115.9,286046899.8,N
1498598135.7,286046897.8,N
1498598155.6,286046900.0,N
1498598175.4,286046897.3,N
1498598195.2,286046901.6,N
1498598215.1,286046899.4,N
1498598216.0,286046899.4,N
1498598235.8,286046899.4,N
1498598255.6,286046901.6,N
1498598275.5,286046901.0,N
1498598295.3,286046901.1,N
1498598315.1,286046899.0,N
1498598335.8,286046901.3,N
1498598355.7,286046902.9,N
1498598375.5,286046901.0,N
1498598395.3,286046901.3,N
1498598415.2,286046901.6,N
1498598435.9,286046899.4,N
1498598455.7,286046899.2,N
1498598475.6,286046900.6,N
1498598495.4,286046902.6,N
1498598515.2,286046900.5,N
1498598535.1,286046900.9,N
1498598536.0,286046900.9,N
1498598555.8,286046900.5,N
1498598575.6,286046904.8,N
1498598595.4,286046902.1,N
1498598615.3,286046904.1,N
1498598635.1,286046902.5,N
1498598655.8,286046904.3,N
1498598675.7,286046903.9,N
1498598695.5,286046906.7,N
1498598715.3,286046903.8,N
1498598735.2,286046906.0,N
1498598755.9,286046906.7,N
1498598775.7,286046906.0,N
1498598795.8,286046906.5,N
1498598815.6,286046906.8,N
1498598835.4,286046906.7,N
1498598855.3,286046906.7,N
1498598875.1,286046906.5,N
1498598876.0,286046906.5,N
1498598895.8,286046906.7,N
1498598915.6,286046906.8,N
1498598935.5,286046906.3,N
1498598955.3,286046905.5,N
1498598975.1,286046905.7,N
1498598995.9,286046908.4,N
1498599015.7,286046905.6,N
1498599035.5,286046906.5,N
1498599055.4,286046906.7,N
1498599075.2,286046906.7,N
1498599095.0,286046905.4,N
1498599095.9,286046905.4,N
1498599115.8,286046908.0,N
1498599135.6,286046907.5,N
1498599155.4,286046908.8,N
1498599175.3,286046909.3,N
1498599195.1,286046909.6,N
1498599196.0,286046909.6,N
1498599215.8,286046909.1,N
1498599235.6,286046908.6,N
1498599255.5,286046909.2,N
1498599275.3,286046908.9,N
1498599295.1,286046909.0,N
1498599315.9,286046907.4,N
1498599335.7,286046907.0,N
1498599355.5,286046907.7,N
1498599375.4,286046907.0,N
1498599395.2,286046907.3,N
1498599415.0,286046907.7,N
1498599415.9,286046907.7,N
1498599435.8,286046909.1,N
1498599455.6,286046909.4,N
1498599475.4,286046908.6,N
1498599495.2,286046909.2,N
1498599515.1,286046906.9,N
1498599516.0,286046906.9,N
1498599535.8,286046909.7,N
1498599555.6,286046910.9,N
1498599575.5,286046913.1,N
1498599595.3,286046912.3,N
1498599615.1,286046912.7,N
1498599635.9,286046910.1,N
1498599655.7,286046913.2,N
1498599675.5,286046912.8,N
1498599695.4,286046913.2,N
1498599715.2,286046910.5,N
1498599735.0,286046910.3,N
1498599735.9,286046910.3,N
1498599755.8,286046910.5,N
1498599775.6,286046910.4,N
1498599795.4,286046913.1,N
1498599815.3,286046911.9,N
1498599835.1,286046912.0,N
1498599836.0,286046912.0,N
1498599855.8,286046912.2,N
1498599875.7,286046913.6,N
1498599895.5,286046915.3,N
1498599915.3,286046915.7,N
1498599935.1,286046914.6,N
1498599955.9,286046915.4,N
1498599975.7,286046917.5,N
1498599995.5,286046915.0,N
1498600015.4,286046915.6,N
1498600035.2,286046915.5,N
1498600055.0,286046917.1,N
1498600055.9,286046917.1,N
1498600075.8,286046917.3,N
1498600095.6,286046916.7,N
1498600115.4,286046916.5,N
1498600135.3,286046918.8,N
1498600155.1,286046918.9,N
1498600156.0,286046918.9,N
1498600175.8,286046918.6,N
1498600195.7,286046918.6,N
1498600215.5,286046918.8,N
1498600235.3,286046918.2,N
1498600255.1,286046918.6,N
1498600275.9,286046919.0,N
1498600295.7,286046919.4,N
1498600315.5,286046918.7,N
1498600335.4,286046919.5,N
1498600355.2,286046916.9,N
1498600375.0,286046917.5,N
1498600375.9,286046917.5,N
1498600395.8,286046917.7,N
1498600415.6,286046917.7,N
1498600435.4,286046916.7,N
1498600455.3,286046917.0,N
1498600475.1,286046918.9,N
1498600476.0,286046918.9,N
1498600495.8,286046918.5,N
1498600515.7,286046918.8,N
1498600535.5,286046921.0,N
1498600555.3,286046918.5,N
1498600575.1,286046918.2,N
1498600595.9,286046918.2,N
1498600615.7,286046918.3,N
1498600635.5,286046918.1,N
1498600655.4,286046920.8,N
1498600675.2,286046918.5,N
1498600695.0,286046920.5,N
1498600695.9,286046920.5,N
1498600715.8,286046922.8,N
1498600735.6,286046920.5,N
1498600755.4,286046922.4,N
1498600775.3,286046921.5,N
1498600795.1,286046922.0,N
1498600796.0,286046922.0,N
